Wind_Speed
12 12 12 12 13 13 12 11 11 12 11 10 9 9 9 9 8 8 8 7 7 7 6 6 6 5 4 3 3 2 3 3 2 3 4 5 6 7 7 7 6 6 6 6 7 6 6 6 6
12 12 12 13 13 11 10 11 11 11 11 11 10 9 9 9 9 8 8 7 7 7 8 7 7 6 5 5 4 3 2 2 2 2 4 5 5 6 7 7 6 5 5 5 6 6 6 6 6
12 12 12 13 12 11 10 10 10 11 11 11 10 10 10 10 10 9 8 8 8 8 8 8 7 6 6 5 4 3 3 3 2 2 4 5 5 6 6 6 5 5 5 5 5 5 6 6 6
12 12 12 13 11 10 10 10 11 11 11 11 11 11 11 10 10 10 9 9 9 8 8 8 7 7 6 5 5 5 4 4 4 3 4 4 4 5 5 5 5 4 4 4 4 5 6 6 5
11 12 13 11 10 10 10 10 11 11 11 11 11 11 11 11 11 10 10 9 9 9 9 8 8 8 6 5 4 5 5 6 5 5 5 5 5 4 4 4 5 4 4 3 3 4 4 5 5
12 13 12 10 10 11 11 11 11 10 11 11 11 11 11 11 11 10 10 10 9 9 9 9 9 8 7 6 5 5 5 6 6 7 7 6 4 4 4 3 3 3 3 4 4 4 4 4 4
12 12 11 10 10 10 10 10 11 11 11 11 11 11 11 11 11 11 10 10 10 9 9 9 9 8 7 7 6 6 7 7 7 6 6 5 5 4 4 3 2 2 2 2 3 4 4 4 3
10 12 10 9 9 9 9 10 11 11 12 11 11 11 11 10 10 11 10 10 9 9 9 9 9 8 8 8 7 6 7 6 6 6 5 5 5 5 4 3 2 1 1 1 2 3 2 2 3
10 11 9 9 9 9 9 10 10 11 12 11 11 11 11 11 10 10 10 10 9 9 9 9 9 9 9 8 8 7 7 6 6 6 5 5 5 5 5 4 3 2 1 1 1 1 1 2 2
9 9 8 8 9 10 10 10 10 10 11 11 12 11 11 10 10 9 9 9 9 9 9 9 9 9 9 8 8 8 8 7 7 6 5 5 5 5 4 4 3 3 3 2 1 0 1 2 3
7 8 8 9 9 9 10 10 10 10 10 11 11 11 11 10 10 9 8 8 8 9 9 9 9 9 9 9 9 8 8 7 7 7 6 5 5 5 5 4 4 4 4 3 3 0 1 2 2
7 7 7 8 8 9 9 10 10 10 10 10 11 10 10 9 9 9 9 8 8 9 9 9 9 9 10 9 8 8 8 7 8 7 7 6 5 5 5 5 4 4 4 4 3 2 2 2 2
6 7 6 7 7 8 9 10 9 9 10 11 10 10 9 9 8 9 9 9 8 8 9 9 9 8 9 9 8 8 8 8 8 8 7 6 5 4 4 4 4 4 4 4 4 3 1 1 1
5 5 5 5 6 7 8 9 9 9 10 10 10 10 9 9 8 8 8 8 9 9 8 8 9 9 8 8 8 8 8 7 7 7 7 7 6 6 5 6 5 5 4 5 4 3 2 2 2
4 5 5 4 5 6 7 8 8 8 9 9 10 10 9 9 9 8 8 8 8 8 8 8 8 8 8 8 8 8 8 8 8 7 6 6 7 6 6 6 5 4 4 4 3 3 3 3 3
4 5 5 4 4 5 6 7 7 8 7 8 8 9 9 9 8 8 7 7 8 7 7 7 8 8 7 7 8 8 8 8 8 8 7 6 6 6 5 5 4 4 4 3 3 3 3 3 3
3 4 3 3 3 3 5 6 6 7 7 7 7 7 8 8 8 7 6 6 7 7 6 6 7 7 7 7 8 7 7 7 7 7 7 7 6 6 4 4 4 3 3 3 3 2 2 2 3
2 1 2 2 3 2 3 4 5 6 6 7 7 7 7 7 7 7 6 6 6 6 5 5 6 6 6 6 7 7 6 6 7 7 7 6 6 6 6 5 4 4 3 3 3 3 3 3 4
3 2 0 1 1 2 3 4 5 5 5 6 6 7 6 6 7 6 6 6 6 5 4 5 6 6 5 6 7 7 7 6 6 6 6 7 7 7 7 6 5 4 4 4 4 4 3 4 4
3 2 2 2 2 1 2 3 4 4 4 5 5 6 6 6 6 5 6 6 6 5 5 5 5 5 6 6 7 7 7 6 6 5 6 6 7 7 7 6 5 4 5 5 5 5 4 4 4
4 4 3 3 3 2 2 3 4 3 4 4 5 5 6 6 5 5 5 6 6 5 5 5 5 5 5 6 6 7 6 6 6 6 6 6 6 6 7 6 6 6 5 5 5 5 5 5 5
6 6 5 4 3 3 2 3 5 4 3 4 5 5 5 6 6 5 5 6 6 5 5 5 5 6 6 6 6 7 7 6 6 6 7 6 6 6 6 6 7 7 6 6 6 6 6 6 7
8 6 5 5 4 4 4 3 5 5 4 5 5 5 6 6 7 7 6 6 6 6 5 5 6 6 6 7 7 7 7 7 7 7 8 8 8 8 7 7 8 8 8 7 7 7 7 8 8
8 7 6 5 5 5 5 4 5 6 5 5 6 6 6 7 7 7 7 7 7 6 6 6 6 6 7 7 7 7 8 8 8 9 9 9 9 8 8 8 8 9 9 9 8 8 9 9 9
9 7 6 6 6 7 6 5 6 6 6 7 7 6 6 7 7 8 8 8 9 8 8 8 7 7 7 8 9 9 9 9 9 9 10 10 9 9 9 9 9 10 10 10 10 10 11 11 11
11 8 8 7 6 8 8 6 7 7 8 8 7 7 7 7 8 8 9 9 10 10 10 10 10 9 9 9 10 10 10 10 10 10 11 11 11 11 11 11 11 12 12 12 12 12 13 13 13
12 10 10 8 7 7 8 9 8 8 8 8 8 8 9 8 9 9 10 10 10 11 11 11 11 11 11 12 12 11 11 11 12 12 12 12 12 13 13 13 13 13 13 13 13 13 14 15 15
13 12 10 8 8 8 9 9 10 8 9 9 9 9 10 10 10 10 10 11 11 11 12 13 13 13 13 14 14 13 13 13 13 13 13 13 13 14 15 15 14 14 14 14 15 16 16 17 17
13 12 11 10 10 9 10 11 11 10 10 10 11 11 11 11 11 12 12 12 12 13 13 13 13 14 14 15 15 15 15 15 15 16 15 16 16 15 16 16 16 16 16 16 17 18 18 19 19
14 13 12 12 13 12 11 12 12 12 11 11 11 12 12 12 13 13 13 13 14 14 14 14 15 15 15 15 16 16 16 16 16 17 17 18 18 18 18 17 17 18 18 19 19 20 21 21 21
Wind_Direction
73 74 73 73 72 70 72 74 73 70 72 76 82 81 79 75 71 65 61 61 57 49 52 52 50 59 73 89 119 133 151 166 180 201 196 190 188 191 191 194 203 211 212 209 208 206 215 219 229
73 74 72 71 73 71 71 72 73 70 72 74 75 74 72 68 64 62 61 58 55 51 51 52 50 54 68 73 90 105 123 139 170 189 188 181 185 195 195 196 204 210 215 212 210 215 221 223 229
73 73 71 71 73 74 72 70 71 70 72 71 71 71 69 66 60 57 58 56 52 51 49 52 55 56 63 65 69 85 98 113 124 150 169 171 179 187 190 192 198 204 207 205 211 222 226 226 232
72 73 70 69 70 74 74 71 70 70 71 69 70 69 66 64 58 56 56 56 56 55 52 54 60 60 61 65 71 73 74 81 87 109 136 150 163 172 178 184 195 198 196 198 212 226 228 232 241
72 72 68 68 69 73 75 72 69 68 68 68 67 66 64 62 60 58 55 55 56 56 53 55 61 61 63 68 70 71 73 78 84 95 114 130 142 149 165 183 194 199 203 210 220 232 241 241 237
71 73 72 73 72 73 74 71 69 68 68 67 67 67 65 62 59 57 55 55 57 57 54 56 60 60 63 63 64 76 81 85 92 103 109 120 134 144 154 177 189 205 223 233 234 235 238 239 235
72 75 73 77 77 72 71 71 67 68 67 65 64 64 64 63 60 58 58 59 57 56 54 58 57 57 56 54 64 70 78 88 96 99 96 107 116 115 120 135 146 165 195 210 227 239 257 246 241
75 77 72 77 78 72 72 73 68 66 64 63 63 63 63 63 62 60 59 58 57 55 54 55 56 55 54 55 62 70 78 88 94 93 93 99 102 101 98 104 115 113 168 205 235 243 253 250 239
78 79 76 78 80 78 76 74 69 66 63 62 61 60 59 60 59 58 58 57 54 54 54 53 55 56 60 64 67 73 79 82 86 88 90 95 101 101 100 94 90 74 77 110 244 241 257 269 260
79 85 75 76 80 82 77 72 68 65 63 62 59 57 55 55 54 55 55 52 51 54 56 56 55 55 60 63 65 69 71 74 77 76 82 88 89 99 100 89 78 63 58 52 42 186 247 266 261
78 79 76 77 76 76 75 71 68 67 63 60 56 52 51 51 52 53 53 52 52 55 59 59 58 57 62 64 64 68 65 64 71 68 63 74 89 100 101 93 79 63 54 48 38 31 264 277 268
77 69 73 77 72 71 73 70 67 65 60 56 53 51 50 51 52 52 54 55 58 61 62 59 61 61 61 61 65 66 59 63 67 63 61 68 82 95 89 80 69 57 50 44 32 13 332 279 255
78 71 69 72 68 69 71 66 62 60 58 56 53 49 48 50 50 50 53 54 57 61 65 62 62 62 59 59 58 63 59 57 62 64 59 60 68 83 78 68 70 61 61 46 37 25 350 296 282
78 68 61 64 62 65 68 63 58 56 57 56 53 49 47 47 47 47 48 51 55 58 62 63 62 60 57 54 58 59 60 59 59 62 68 71 73 78 83 76 75 65 55 48 49 47 33 13 348
73 62 52 54 55 58 62 56 51 49 48 48 47 46 43 42 45 46 47 49 53 58 61 63 59 57 58 58 59 59 59 57 55 55 63 72 70 64 62 67 67 61 52 41 38 34 28 10 352
68 50 44 45 51 52 57 51 42 38 36 36 40 42 40 38 40 42 43 44 48 53 57 61 56 57 58 59 57 57 54 51 47 46 50 53 54 54 51 50 46 46 45 43 35 27 17 3 3
59 50 44 37 38 45 50 38 31 27 25 26 28 30 33 33 35 38 37 38 40 44 51 50 50 53 53 52 50 50 51 49 46 44 44 42 40 43 41 38 39 42 33 31 28 24 22 3 359
151 104 38 25 25 26 28 19 13 13 14 17 18 19 21 24 28 32 32 33 31 32 38 36 36 39 39 38 38 40 43 44 44 40 35 35 33 31 31 31 30 34 29 15 7 10 8 6 360
190 185 233 321 347 16 13 6 4 5 7 10 9 8 12 16 20 23 25 24 22 25 29 28 22 24 30 32 32 31 34 37 34 31 29 28 26 26 24 22 19 20 14 5 0 357 349 352 353
215 221 249 275 284 319 354 359 357 1 1 4 6 5 5 5 11 12 12 13 16 26 34 31 28 26 27 27 26 26 27 27 22 17 14 16 18 18 18 17 14 10 5 357 347 344 345 343 338
230 229 245 263 270 282 322 336 330 342 347 353 357 358 0 358 358 360 360 3 8 18 26 26 20 19 17 16 17 16 17 14 6 2 357 357 0 2 3 4 2 0 356 349 345 339 335 325 320
234 237 248 255 264 276 284 295 303 310 328 336 341 341 344 345 347 348 349 351 355 360 7 10 8 5 360 357 359 1 2 2 359 351 345 343 341 339 344 346 344 340 341 340 335 330 324 317 315
235 243 249 253 260 271 279 264 286 294 304 317 323 322 325 328 330 332 334 337 339 342 346 349 349 350 347 347 346 344 346 347 343 337 341 343 336 334 333 333 336 336 336 330 325 319 316 313 312
237 243 252 258 267 276 276 268 277 281 292 305 307 309 314 315 318 326 324 324 326 328 329 331 334 335 335 334 334 333 333 333 334 330 331 331 330 328 328 328 327 327 325 321 318 312 311 312 311
232 238 259 266 270 275 274 267 263 272 286 297 300 303 310 311 317 321 321 318 317 319 321 321 320 320 321 323 322 323 324 325 327 326 324 324 322 320 322 323 322 318 315 315 314 312 311 310 310
231 230 238 249 263 275 276 273 268 275 284 290 293 293 300 302 308 313 314 313 312 313 315 317 317 312 310 312 313 314 316 318 319 319 319 318 318 316 316 318 318 315 311 310 310 307 307 306 306
238 238 245 247 254 264 268 279 284 283 285 288 287 288 291 297 304 305 307 308 308 309 310 309 313 310 309 311 311 308 309 311 312 312 315 317 319 318 315 317 317 314 313 312 310 311 308 305 304
242 244 245 243 251 262 271 280 284 287 288 289 289 288 286 289 296 297 298 300 301 302 305 307 309 309 309 309 310 306 302 305 307 307 309 311 312 313 313 312 315 315 312 311 310 308 308 306 304
243 246 248 248 249 255 266 273 280 284 286 288 286 282 283 283 289 290 289 291 292 295 299 303 305 306 305 304 304 305 302 303 308 307 306 307 306 308 310 308 309 311 309 306 306 306 304 302 301
243 246 247 252 258 259 261 270 277 279 282 284 285 284 286 286 286 285 284 286 287 289 293 295 297 299 300 301 300 301 302 302 305 308 307 305 303 303 304 305 304 306 305 304 303 303 303 300 299
Height
5902 5901 5901 5901 5902 5902 5900 5900 5898 5897 5896 5894 5893 5892 5891 5891 5890 5891 5888 5885 5884 5883 5881 5880 5879 5878 5877 5876 5875 5875 5874 5874 5873 5873 5872 5873 5873 5874 5875 5876 5877 5877 5878 5878 5878 5878 5878 5878 5879
5904 5903 5904 5904 5904 5903 5902 5901 5899 5898 5897 5895 5894 5893 5892 5891 5890 5889 5887 5886 5885 5884 5882 5881 5880 5878 5877 5877 5876 5875 5875 5874 5873 5872 5871 5872 5873 5874 5874 5875 5876 5877 5877 5877 5877 5877 5877 5878 5878
5905 5905 5906 5906 5905 5905 5904 5902 5900 5899 5898 5896 5895 5894 5893 5892 5891 5889 5888 5887 5886 5884 5883 5882 5880 5879 5878 5877 5876 5875 5874 5873 5872 5871 5870 5871 5872 5873 5874 5875 5875 5876 5876 5877 5877 5877 5877 5877 5877
5908 5908 5908 5908 5907 5906 5905 5903 5901 5900 5899 5897 5896 5895 5893 5892 5891 5890 5889 5887 5886 5885 5884 5882 5881 5880 5878 5878 5877 5876 5874 5873 5871 5870 5870 5870 5871 5873 5873 5874 5875 5875 5876 5876 5876 5876 5876 5876 5876
5909 5909 5910 5910 5908 5907 5906 5904 5903 5901 5900 5899 5898 5896 5895 5894 5892 5891 5890 5889 5887 5886 5885 5883 5882 5881 5879 5878 5877 5875 5874 5873 5872 5870 5870 5871 5872 5872 5873 5873 5874 5875 5875 5875 5875 5875 5875 5875 5875
5911 5911 5913 5911 5910 5909 5907 5906 5904 5903 5902 5900 5899 5898 5896 5895 5894 5892 5891 5890 5888 5887 5886 5884 5883 5882 5880 5879 5877 5876 5875 5874 5873 5871 5871 5872 5872 5872 5873 5874 5874 5874 5874 5874 5874 5874 5874 5874 5874
5913 5913 5913 5913 5912 5910 5909 5908 5906 5905 5903 5902 5901 5899 5898 5896 5895 5894 5892 5891 5890 5888 5887 5885 5884 5883 5881 5880 5878 5877 5876 5875 5874 5873 5873 5873 5873 5873 5874 5874 5874 5874 5874 5873 5873 5873 5873 5873 5873
5915 5915 5915 5914 5913 5912 5911 5909 5907 5906 5905 5904 5902 5901 5900 5898 5897 5895 5894 5892 5891 5890 5888 5887 5885 5883 5882 5880 5879 5878 5877 5876 5875 5875 5874 5874 5874 5874 5874 5874 5874 5874 5873 5873 5872 5872 5872 5872 5872
5916 5918 5917 5915 5914 5913 5912 5910 5909 5907 5906 5905 5904 5902 5901 5900 5898 5896 5895 5894 5892 5891 5889 5888 5886 5885 5883 5882 5880 5879 5878 5877 5876 5876 5875 5875 5875 5875 5875 5874 5874 5873 5873 5872 5871 5871 5871 5871 5872
5918 5919 5918 5916 5915 5914 5913 5912 5910 5909 5908 5907 5905 5904 5902 5901 5899 5898 5896 5895 5893 5892 5891 5889 5888 5886 5885 5884 5882 5880 5880 5878 5877 5877 5876 5875 5875 5875 5875 5874 5874 5874 5873 5871 5870 5870 5871 5871 5871
5919 5919 5918 5917 5916 5915 5914 5913 5912 5911 5910 5908 5907 5905 5904 5902 5901 5899 5898 5896 5895 5893 5892 5891 5889 5888 5886 5885 5884 5882 5881 5880 5879 5878 5877 5876 5875 5875 5875 5875 5875 5874 5873 5872 5871 5870 5871 5871 5871
5920 5920 5919 5918 5917 5916 5916 5915 5914 5912 5911 5910 5908 5907 5905 5904 5902 5901 5899 5898 5896 5895 5893 5892 5891 5890 5888 5887 5885 5884 5883 5881 5880 5879 5878 5876 5876 5875 5875 5875 5875 5875 5874 5873 5873 5872 5872 5871 5871
5921 5921 5920 5919 5919 5918 5917 5916 5915 5914 5912 5911 5909 5908 5907 5905 5904 5902 5901 5899 5897 5896 5895 5894 5892 5891 5889 5888 5887 5886 5885 5883 5882 5881 5879 5877 5876 5876 5876 5876 5876 5876 5875 5874 5874 5873 5873 5872 5872
5922 5922 5921 5920 5920 5919 5918 5918 5917 5916 5914 5912 5911 5910 5908 5907 5905 5904 5902 5901 5899 5898 5896 5895 5894 5892 5891 5889 5888 5887 5886 5885 5884 5882 5881 5879 5878 5877 5877 5877 5877 5877 5876 5876 5875 5874 5874 5874 5873
5923 5923 5923 5922 5921 5920 5920 5919 5918 5917 5916 5914 5913 5911 5910 5909 5907 5905 5904 5902 5901 5899 5898 5896 5895 5894 5892 5891 5890 5889 5888 5886 5885 5884 5882 5881 5880 5879 5879 5878 5878 5878 5877 5876 5876 5875 5874 5874 5873
5924 5925 5924 5923 5922 5922 5923 5921 5920 5918 5917 5915 5914 5913 5911 5910 5908 5907 5905 5904 5902 5900 5899 5898 5896 5895 5894 5892 5891 5890 5889 5888 5886 5885 5884 5882 5881 5881 5880 5880 5879 5878 5878 5877 5876 5875 5875 5874 5873
5925 5926 5926 5924 5923 5922 5922 5922 5920 5919 5918 5916 5915 5914 5913 5911 5910 5908 5906 5905 5903 5902 5900 5899 5897 5896 5895 5893 5892 5891 5890 5889 5887 5886 5885 5884 5883 5882 5881 5880 5880 5879 5878 5877 5876 5876 5875 5874 5873
5927 5927 5926 5925 5924 5923 5922 5922 5921 5919 5918 5917 5916 5915 5913 5912 5911 5909 5907 5905 5904 5903 5901 5900 5899 5897 5896 5895 5893 5892 5891 5890 5888 5887 5886 5885 5884 5882 5881 5881 5880 5879 5879 5878 5877 5876 5875 5874 5873
5926 5926 5926 5925 5924 5923 5923 5922 5921 5919 5918 5918 5917 5915 5914 5913 5911 5910 5908 5906 5905 5903 5902 5901 5899 5898 5897 5895 5894 5893 5892 5891 5890 5888 5887 5886 5885 5883 5882 5881 5880 5879 5879 5878 5876 5875 5875 5874 5873
5925 5926 5925 5925 5924 5923 5922 5922 5921 5920 5919 5918 5917 5916 5915 5913 5912 5910 5909 5907 5905 5904 5903 5901 5900 5899 5897 5896 5895 5893 5892 5891 5890 5889 5888 5887 5885 5884 5883 5882 5881 5880 5879 5877 5876 5875 5874 5873 5873
5924 5925 5925 5924 5923 5923 5923 5922 5921 5920 5919 5918 5917 5916 5915 5914 5912 5911 5909 5908 5906 5904 5903 5902 5901 5899 5898 5897 5895 5894 5893 5892 5891 5890 5888 5887 5886 5884 5883 5882 5880 5879 5878 5877 5876 5875 5874 5873 5872
5923 5923 5923 5923 5923 5923 5923 5924 5922 5920 5919 5918 5917 5916 5915 5914 5913 5911 5910 5908 5906 5905 5904 5902 5901 5900 5898 5897 5896 5894 5893 5892 5891 5890 5888 5887 5886 5884 5883 5882 5880 5879 5877 5876 5875 5874 5873 5872 5871
5921 5921 5921 5922 5922 5923 5922 5923 5922 5920 5919 5918 5917 5916 5915 5914 5912 5911 5910 5908 5907 5905 5904 5902 5901 5900 5899 5897 5896 5895 5893 5892 5891 5889 5888 5887 5885 5884 5882 5881 5879 5878 5877 5875 5874 5873 5872 5871 5870
5918 5920 5920 5920 5922 5922 5921 5921 5921 5919 5918 5918 5916 5915 5914 5913 5912 5910 5909 5908 5906 5905 5903 5902 5901 5900 5898 5897 5896 5894 5893 5891 5890 5889 5887 5886 5884 5883 5881 5880 5878 5877 5875 5874 5873 5871 5870 5869 5868
5916 5919 5921 5921 5922 5921 5919 5919 5920 5918 5917 5916 5915 5914 5913 5912 5911 5910 5908 5907 5906 5904 5903 5901 5900 5899 5897 5896 5895 5893 5892 5890 5889 5888 5886 5885 5883 5881 5880 5878 5877 5875 5874 5872 5871 5869 5868 5867 5865
5914 5916 5919 5921 5921 5920 5917 5917 5918 5916 5915 5914 5913 5912 5911 5910 5909 5908 5907 5905 5904 5903 5901 5900 5898 5897 5896 5895 5893 5892 5891 5889 5888 5886 5884 5883 5881 5880 5878 5876 5875 5873 5871 5870 5868 5867 5865 5863 5862
5911 5912 5914 5916 5917 5917 5917 5915 5914 5913 5912 5912 5911 5910 5910 5909 5908 5907 5905 5904 5903 5901 5900 5898 5897 5896 5894 5893 5892 5890 5889 5887 5886 5884 5882 5881 5879 5877 5876 5874 5872 5871 5869 5867 5865 5864 5862 5860 5858
5908 5909 5911 5913 5914 5915 5915 5914 5913 5911 5910 5910 5909 5908 5907 5906 5906 5904 5903 5902 5901 5899 5898 5897 5895 5894 5892 5891 5889 5888 5886 5885 5883 5881 5880 5878 5876 5875 5873 5871 5869 5868 5866 5864 5862 5860 5858 5856 5854
5905 5906 5907 5909 5910 5913 5913 5914 5910 5908 5908 5907 5906 5905 5905 5904 5903 5902 5901 5900 5899 5897 5896 5894 5893 5891 5890 5888 5887 5885 5883 5882 5880 5878 5877 5875 5873 5871 5870 5868 5866 5864 5862 5860 5858 5856 5854 5852 5849
5901 5902 5904 5907 5906 5907 5909 5911 5906 5905 5904 5904 5903 5902 5902 5901 5900 5899 5898 5897 5896 5895 5893 5892 5890 5889 5887 5886 5884 5882 5880 5878 5877 5875 5873 5871 5869 5868 5866 5864 5862 5860 5858 5856 5854 5851 5849 5847 5845